Theta_e
291 291 291 291 290 290 290 289 288 288 288 287 287 287 286 286 286 286 286 286 286 286 286 285 285 285 284 284 284 284 283 283 283 283 283 283 283 282 282 282 282 282
290 290 290 290 290 289 289 288 288 288 287 287 287 286 286 286 286 286 286 286 286 286 285 285 285 285 284 284 284 283 283 283 283 282 283 283 282 282 282 281 282 281
290 290 289 289 289 289 288 288 288 288 287 286 286 286 286 286 286 286 286 286 285 285 285 285 285 284 284 283 283 283 283 282 282 282 282 282 282 281 281 281 281 281
289 289 289 289 289 288 288 288 287 287 287 286 286 286 286 286 286 286 285 285 285 285 285 284 284 284 283 283 283 282 282 282 282 282 282 282 281 281 281 281 280 280
289 289 289 289 288 288 288 287 287 287 286 286 286 286 286 286 285 285 285 285 284 284 284 284 283 283 282 282 282 282 282 281 281 282 282 282 281 280 280 280 280 280
289 288 289 288 288 288 287 287 287 286 286 286 286 286 285 285 285 285 284 284 284 283 283 283 283 282 282 282 282 281 281 281 281 281 281 281 280 280 279 279 279 279
288 288 288 288 288 287 287 287 286 286 286 286 286 285 285 285 284 284 284 284 283 283 283 282 282 282 282 281 281 281 281 281 281 280 280 280 279 279 279 279 279 279
288 288 288 288 287 287 287 287 286 286 286 286 285 285 285 285 284 284 283 283 283 283 282 282 282 281 281 281 281 281 281 280 280 280 280 279 279 279 278 278 278 278
288 288 287 287 287 287 287 286 286 286 286 286 285 285 285 284 284 284 283 283 283 282 282 281 281 281 281 280 280 280 280 280 280 280 280 279 279 278 278 278 278 278
288 287 287 287 287 287 286 286 286 286 286 285 285 285 285 284 284 283 283 283 282 282 281 281 281 280 280 280 280 280 280 280 280 280 279 279 279 278 278 278 278 277
287 287 286 287 287 287 286 286 286 286 286 285 285 285 284 284 284 283 283 283 282 282 281 281 280 280 280 280 280 280 280 280 280 279 279 279 278 278 278 278 277 277
287 286 286 287 287 287 286 286 286 286 286 285 285 285 284 284 284 283 283 283 282 281 281 280 280 280 280 280 279 279 279 279 279 279 278 278 278 278 278 277 277 276
287 286 286 287 287 287 286 286 286 286 285 285 285 284 284 284 284 283 283 282 282 281 281 280 280 280 279 279 279 279 279 279 279 278 278 278 278 278 277 277 276 276
286 286 286 287 287 287 286 286 286 286 285 285 284 284 284 284 284 283 283 282 282 281 281 280 280 279 279 279 279 279 278 278 278 278 278 278 278 277 277 277 276 276
286 285 286 286 287 287 286 286 286 286 285 285 284 284 284 284 283 283 283 282 282 281 281 280 280 279 279 279 278 278 278 278 278 278 278 278 277 277 277 277 276 275
286 285 285 286 287 287 286 286 286 286 285 285 284 284 284 283 283 283 282 282 282 282 281 280 279 279 278 278 278 278 277 277 277 277 277 277 277 277 277 276 276 275
285 285 285 286 287 287 286 286 286 286 285 285 284 284 284 283 283 283 282 282 282 282 281 280 279 278 278 278 277 277 277 276 277 277 277 277 276 276 276 276 275 275
285 285 285 286 287 287 286 286 286 286 285 285 284 284 283 283 283 282 282 282 282 282 281 279 279 278 278 277 277 277 276 276 276 276 276 276 275 275 275 275 275 274
285 285 285 286 287 287 286 286 286 286 285 285 284 284 283 283 283 282 282 282 282 282 281 280 279 278 277 277 277 276 276 275 275 275 275 275 274 274 274 274 274 273
285 285 286 286 286 287 286 286 286 286 285 285 284 283 283 283 283 282 282 282 282 281 281 280 279 278 277 277 277 276 276 275 275 275 275 274 274 273 273 273 273 272
285 285 285 286 286 286 286 286 286 286 285 285 284 284 284 283 282 282 282 282 282 281 281 280 278 278 277 277 276 276 275 274 275 275 274 274 274 274 273 273 272 272
285 285 285 285 285 286 286 286 286 285 285 285 284 283 283 282 282 282 282 282 282 281 280 279 278 277 277 276 276 276 275 274 274 274 274 274 273 273 272 272 271 271
286 285 285 285 285 286 286 286 286 286 285 284 284 283 283 282 282 282 281 281 281 280 280 279 278 277 276 276 276 275 275 274 274 274 273 273 272 272 271 271 271 271
286 285 285 285 285 286 287 287 286 286 285 284 284 283 283 283 282 281 280 280 280 280 279 279 277 276 276 276 276 275 274 274 274 274 273 272 271 270 270 271 271 271
286 285 285 285 286 286 287 287 286 286 285 284 283 282 282 282 281 280 279 279 279 279 279 278 277 276 276 276 275 275 274 274 274 273 272 271 270 270 270 271 271 272
285 285 285 285 286 287 287 287 286 285 284 283 282 281 281 281 280 279 278 278 277 278 278 278 277 276 275 275 275 275 274 274 273 272 271 270 270 270 271 271 272 272
Wind_Speed
28 27 26 25 23 22 22 21 19 19 18 16 16 16 15 15 14 13 13 13 13 12 12 12 12 12 12 12 11 12 12 12 13 14 13 12 11 11 12 12 10 10
27 26 26 25 24 23 22 20 19 18 17 16 15 15 14 14 12 11 11 10 10 10 10 10 10 10 10 10 10 11 11 11 12 12 12 11 10 10 11 11 10 10
26 25 25 25 25 23 21 20 18 18 17 16 15 14 13 12 10 10 9 9 8 8 8 8 8 8 8 9 9 9 9 9 10 11 11 10 9 9 10 11 11 11
26 25 25 24 23 22 20 19 19 18 17 15 14 12 11 10 9 8 8 7 7 7 7 7 7 7 7 7 7 8 8 8 8 9 10 10 8 8 10 10 11 11
26 25 24 23 21 20 20 19 18 17 15 14 13 11 10 9 8 8 7 7 6 6 6 6 6 6 7 7 7 8 7 7 8 9 10 10 8 8 9 9 10 11
26 25 23 22 20 20 19 18 17 15 14 13 12 10 9 8 8 7 6 6 5 5 5 6 6 6 7 7 7 7 7 7 8 8 9 8 8 7 7 8 10 10
27 25 23 21 20 19 18 17 16 14 13 11 11 10 9 8 7 7 6 5 5 5 5 6 6 6 6 6 6 6 6 7 8 8 8 8 8 8 8 9 10 10
26 24 23 22 21 19 17 16 15 13 12 11 10 9 8 7 7 6 5 5 5 5 5 5 5 5 6 6 6 6 6 7 8 8 8 8 8 9 9 10 11 11
26 24 23 22 21 19 17 15 14 12 11 10 9 9 7 7 6 5 5 4 4 4 4 5 5 5 6 6 6 7 7 7 8 8 8 9 9 10 10 11 12 12
26 25 24 22 20 19 17 15 14 12 10 9 8 8 7 6 5 4 4 3 3 4 4 5 5 5 6 6 6 7 7 8 8 8 9 9 10 10 11 11 12 13
26 25 24 22 20 19 17 15 14 12 11 9 8 7 6 6 5 4 3 3 4 4 5 5 5 6 6 6 7 7 8 9 9 9 9 9 10 10 10 11 12 13
27 26 25 23 21 19 17 15 14 12 11 10 8 7 6 5 4 3 3 3 4 4 4 5 5 6 7 7 8 8 9 9 9 10 10 10 10 11 10 11 11 12
28 27 26 23 21 19 17 16 15 13 11 10 8 7 5 4 3 3 2 2 3 4 4 5 6 6 7 8 9 10 10 10 11 11 11 11 11 11 11 11 12 12
29 28 26 24 22 20 18 17 16 14 12 10 9 7 5 4 3 2 1 1 2 4 4 5 6 7 8 9 10 10 11 11 11 12 12 12 12 13 13 12 12 12
29 28 27 25 23 21 20 19 17 15 13 12 10 8 6 5 4 2 1 1 2 4 5 6 7 8 9 9 10 11 12 12 13 13 13 13 14 14 14 13 13 13
29 29 28 27 25 23 22 20 18 16 14 13 11 8 7 6 5 3 2 2 3 4 6 7 8 9 9 10 11 12 13 13 14 14 14 15 15 15 15 15 14 14
30 29 29 27 26 24 23 22 19 18 16 14 12 10 9 8 6 5 3 2 3 5 7 7 8 9 9 10 11 12 13 14 14 15 15 15 16 16 16 16 16 16
32 31 30 29 28 26 25 23 20 19 18 16 13 12 11 9 8 6 4 4 4 5 7 8 8 9 10 11 12 12 12 14 14 15 16 16 16 16 16 17 17 18
34 33 32 31 30 28 27 24 22 21 19 17 15 14 13 11 9 8 6 5 6 6 7 8 9 9 10 12 12 12 12 13 15 15 15 16 16 16 16 17 17 18
35 35 34 33 31 30 28 26 24 23 21 19 17 16 15 13 11 9 7 7 7 7 8 8 9 10 11 12 12 12 12 13 15 16 15 16 16 16 16 17 16 17
35 35 35 34 32 32 30 28 26 25 23 21 20 18 17 15 12 10 9 8 8 8 9 8 9 10 11 12 12 12 12 13 15 16 16 16 16 16 16 16 15 15
37 37 37 35 34 33 31 30 28 27 25 24 22 21 19 17 14 12 11 10 9 9 9 9 9 10 11 11 12 12 13 14 16 16 16 17 16 15 14 14 13 14
39 39 38 37 36 34 33 32 31 29 27 26 24 23 22 19 16 14 13 12 11 10 10 9 9 10 11 11 12 12 13 15 16 16 16 16 15 14 13 13 12 13
40 41 40 39 37 36 34 34 32 31 30 28 26 25 22 19 17 16 15 13 12 10 11 11 10 9 10 11 11 12 13 14 15 16 15 15 14 13 13 12 12 12
41 42 41 39 38 37 35 35 34 33 31 30 28 25 22 20 19 18 16 14 12 11 12 12 11 9 10 11 11 11 13 14 15 15 15 14 14 13 12 12 12 12
42 42 41 40 39 37 36 35 35 34 32 31 28 26 23 22 21 19 18 15 13 12 13 13 12 10 10 11 12 11 12 13 15 15 15 14 13 12 12 13 13 13
Wind_Direction
136 136 135 135 136 137 136 133 127 120 112 106 100 93 86 81 76 71 67 62 57 53 49 47 44 42 41 39 38 37 35 34 33 29 27 29 27 20 13 13 15 6
140 141 142 141 140 138 136 131 126 121 115 108 101 94 89 85 80 74 71 65 60 55 50 46 43 39 36 34 33 32 30 29 28 24 21 24 23 14 6 3 6 4
145 146 145 142 140 137 133 129 125 121 117 111 105 100 96 93 88 83 78 72 67 61 54 49 44 40 36 32 31 32 30 25 20 17 17 23 22 8 359 356 359 2
148 148 145 141 139 135 132 129 126 123 120 116 112 107 103 100 95 90 84 77 71 64 57 50 44 40 36 32 31 31 31 23 13 10 12 19 18 0 354 354 354 356
150 148 145 142 139 136 134 132 130 128 125 120 116 113 110 106 100 93 87 80 73 65 58 51 45 40 33 30 29 26 24 15 7 5 8 11 9 358 353 349 347 348
152 149 147 144 141 139 138 137 134 131 127 123 121 119 115 109 102 96 88 81 74 65 56 47 39 33 28 22 20 18 12 6 3 2 3 2 0 358 350 341 338 341
154 152 149 145 143 143 144 141 136 132 129 129 126 120 115 109 103 98 91 80 70 58 47 41 32 25 21 13 11 10 3 360 357 356 358 355 353 352 345 337 336 340
156 153 150 148 148 150 148 143 138 135 134 133 127 121 115 109 103 96 87 74 62 51 40 33 25 17 11 5 2 1 357 355 351 349 350 348 346 344 340 337 336 338
159 156 153 153 155 155 152 146 142 140 140 136 129 125 118 110 102 92 83 70 57 46 34 23 16 11 4 358 353 349 348 347 343 341 342 341 339 337 336 335 334 334
162 159 159 160 161 160 156 151 148 147 147 143 135 129 122 114 106 96 85 69 51 35 20 12 8 3 354 347 341 337 337 335 334 334 334 332 330 330 331 329 328 329
166 164 166 168 167 165 161 157 156 156 155 151 146 140 131 122 112 98 79 54 36 20 9 1 355 350 343 335 328 325 326 325 325 325 324 324 323 324 324 321 322 324
171 170 172 174 172 170 166 163 163 165 165 162 158 152 142 128 111 95 69 41 21 5 356 349 344 338 329 323 318 317 316 315 315 315 314 315 318 319 319 318 319 320
177 177 179 179 177 174 171 171 173 174 174 172 169 164 152 136 118 100 69 37 10 350 342 336 332 326 318 314 312 310 308 307 308 309 309 311 315 317 319 319 318 318
182 182 184 183 181 179 178 178 181 183 183 182 180 174 163 151 140 121 83 31 345 332 327 325 322 317 311 308 306 304 303 304 304 305 308 311 314 317 320 320 319 318
187 187 188 188 185 184 185 186 188 189 190 190 188 185 179 171 170 165 159 314 324 320 319 319 315 309 306 303 302 302 302 304 305 307 310 311 314 317 319 321 321 320
189 190 192 192 190 190 191 191 193 194 197 199 196 194 193 190 192 195 209 267 308 314 314 312 307 304 304 301 302 303 303 305 308 309 311 312 314 317 319 319 320 318
191 192 194 196 195 195 196 196 197 199 202 205 202 203 205 203 204 210 219 258 297 308 306 304 302 301 301 299 298 300 300 302 305 306 308 310 312 314 316 316 316 315
194 195 197 199 199 199 200 200 202 205 207 209 208 211 213 211 213 219 227 255 283 294 295 296 298 297 296 295 294 294 294 296 299 301 303 305 307 309 310 311 312 312
196 198 200 202 202 202 203 203 205 209 212 213 213 215 218 218 218 223 232 253 272 282 287 292 294 291 290 289 289 290 291 291 293 295 296 298 300 301 303 305 306 306
198 201 203 204 205 204 204 205 209 213 215 216 217 219 222 221 221 225 234 250 265 274 281 287 288 286 285 285 285 288 289 287 288 289 290 292 292 294 297 299 301 302
200 204 205 206 207 206 207 208 211 215 218 219 220 223 226 225 223 227 235 248 260 269 275 281 283 281 280 281 283 284 284 283 283 285 287 288 289 291 295 298 301 303
203 205 206 208 208 208 208 211 213 216 219 221 222 225 227 225 225 228 235 245 254 262 270 275 276 275 275 277 279 280 279 279 281 284 285 287 289 292 296 299 301 303
205 207 208 209 209 209 210 213 215 217 221 223 223 226 227 226 228 231 233 241 249 257 267 271 269 269 271 274 276 277 276 277 281 283 284 286 290 293 294 297 299 301
208 209 210 210 210 212 214 216 217 219 223 224 224 227 230 229 231 233 234 238 244 254 265 270 267 263 266 272 274 274 275 277 279 281 281 283 288 290 290 293 298 296
210 211 212 213 214 216 217 218 219 221 223 225 225 227 230 232 232 234 235 238 242 251 263 269 268 262 263 269 271 270 272 274 276 277 279 281 283 286 286 289 294 294
212 213 215 216 218 219 219 220 220 221 222 223 223 225 228 232 234 235 237 238 240 247 259 267 270 266 262 266 268 267 268 270 272 271 273 275 274 274 281 286 291 294